| time (UTC) | temp F | wind direction | speed MPH | gust MPH | rain 1hr in | rain 24hr in | rain mn in | humidity % | barometer mb |
| 20260902200016 | 65 | 203 | 2.0 | 4.0 | 0.00 | 0.06 | 0.06 | 96 | 1021.8 |
| 20260902195017 | 65 | 248 | 2.0 | 4.0 | 0.00 | 0.06 | 0.06 | 96 | 1021.9 |
| 20260902194016 | 65 | 180 | 2.0 | 4.0 | 0.00 | 0.06 | 0.06 | 96 | 1021.9 |
| 20260902193016 | 65 | 203 | 2.0 | 4.0 | 0.00 | 0.06 | 0.06 | 96 | 1021.8 |
| 20260902192016 | 65 | 225 | 2.0 | 5.0 | 0.00 | 0.06 | 0.06 | 96 | 1021.6 |
| 20260902191015 | 65 | 225 | 2.0 | 5.0 | 0.01 | 0.06 | 0.06 | 95 | 1021.8 |
| 20260902190016 | 65 | 225 | 2.0 | 5.0 | 0.01 | 0.06 | 0.06 | 95 | 1021.7 |
| 20260902185015 | 65 | 225 | 2.0 | 6.0 | 0.01 | 0.06 | 0.06 | 95 | 1021.7 |
| 20260902184016 | 65 | 203 | 1.0 | 4.0 | 0.02 | 0.06 | 0.06 | 95 | 1021.7 |
| 20260902183015 | 65 | 225 | 2.0 | 4.0 | 0.02 | 0.06 | 0.06 | 95 | 1021.8 |
| 20260902182016 | 64 | 203 | 2.0 | 4.0 | 0.02 | 0.06 | 0.06 | 95 | 1021.8 |
| 20260902181016 | 64 | 203 | 3.0 | 6.0 | 0.02 | 0.05 | 0.05 | 95 | 1021.8 |
| 20260902180016 | 64 | 203 | 3.0 | 6.0 | 0.02 | 0.05 | 0.05 | 94 | 1021.9 |
| 20260902175016 | 64 | 203 | 2.0 | 6.0 | 0.02 | 0.05 | 0.05 | 94 | 1022.0 |
| 20260902174016 | 64 | 225 | 3.0 | 7.0 | 0.01 | 0.04 | 0.04 | 94 | 1022.0 |
| 20260902173016 | 64 | 248 | 3.0 | 6.0 | 0.01 | 0.04 | 0.04 | 94 | 1021.9 |
| 20260902172036 | 64 | 225 | 3.0 | 8.0 | 0.01 | 0.04 | 0.04 | 93 | 1021.9 |
| 20260902171017 | 64 | 180 | 3.0 | 6.0 | 0.00 | 0.03 | 0.03 | 92 | 1021.9 |
| 20260902170016 | 64 | 225 | 2.0 | 7.0 | 0.00 | 0.03 | 0.03 | 92 | 1022.0 |
| 20260902165016 | 64 | 203 | 3.0 | 5.0 | 0.00 | 0.03 | 0.03 | 91 | 1022.2 |
| 20260902164016 | 65 | 225 | 3.0 | 6.0 | 0.00 | 0.03 | 0.03 | 90 | 1022.4 |
| 20260902163016 | 65 | 225 | 2.0 | 7.0 | 0.00 | 0.03 | 0.03 | 88 | 1022.5 |
| 20260902162018 | 65 | 203 | 3.0 | 8.0 | 0.00 | 0.03 | 0.03 | 86 | 1022.6 |
| 20260902161016 | 66 | 180 | 4.0 | 8.0 | 0.00 | 0.03 | 0.03 | 85 | 1022.6 |
| 20260902160016 | 66 | 203 | 3.0 | 7.0 | 0.00 | 0.03 | 0.03 | 84 | 1022.5 |
| 20260902155017 | 66 | 203 | 3.0 | 6.0 | 0.00 | 0.03 | 0.03 | 84 | 1022.8 |
| 20260902154016 | 66 | 203 | 3.0 | 6.0 | 0.00 | 0.03 | 0.03 | 83 | 1022.8 |
| 20260902153036 | 66 | 225 | 3.0 | 9.0 | 0.00 | 0.03 | 0.03 | 82 | 1022.9 |
| 20260902152016 | 67 | 225 | 4.0 | 8.0 | 0.00 | 0.03 | 0.03 | 79 | 1023.1 |
| 20260902151036 | 68 | 225 | 5.0 | 9.0 | 0.00 | 0.03 | 0.03 | 76 | 1023.3 |
| 20260902150016 | 69 | 203 | 5.0 | 10.0 | 0.00 | 0.03 | 0.03 | 73 | 1023.0 |
| 20260902145016 | 69 | 203 | 3.0 | 7.0 | 0.00 | 0.03 | 0.03 | 71 | 1023.0 |
| 20260902144016 | 68 | 203 | 4.0 | 7.0 | 0.00 | 0.03 | 0.03 | 71 | 1023.1 |
| 20260902143016 | 69 | 225 | 4.0 | 7.0 | 0.00 | 0.03 | 0.03 | 70 | 1023.2 |
| 20260902142017 | 69 | 203 | 5.0 | 10.0 | 0.00 | 0.03 | 0.03 | 68 | 1023.3 |
| 20260902141036 | 69 | 225 | 4.0 | 9.0 | 0.00 | 0.03 | 0.03 | 71 | 1023.3 |
| 20260902140016 | 68 | 225 | 4.0 | 12.0 | 0.00 | 0.03 | 0.03 | 70 | 1023.3 |
| 20260902135016 | 68 | 225 | 5.0 | 13.0 | 0.00 | 0.03 | 0.03 | 70 | 1023.5 |
| 20260902134036 | 68 | 225 | 4.0 | 10.0 | 0.00 | 0.03 | 0.03 | 72 | 1023.5 |
| 20260902133036 | 68 | 203 | 4.0 | 8.0 | 0.00 | 0.03 | 0.03 | 73 | 1023.6 |
| 20260902132037 | 68 | 225 | 4.0 | 7.0 | 0.00 | 0.03 | 0.03 | 74 | 1023.7 |
| 20260902131016 | 67 | 203 | 3.0 | 11.0 | 0.00 | 0.03 | 0.03 | 75 | 1023.7 |
| 20260902130016 | 67 | 203 | 3.0 | 8.0 | 0.00 | 0.03 | 0.03 | 75 | 1023.7 |
| 20260902125016 | 66 | 203 | 3.0 | 7.0 | 0.00 | 0.03 | 0.03 | 76 | 1023.9 |
| 20260902124017 | 66 | 225 | 3.0 | 12.0 | 0.00 | 0.03 | 0.03 | 75 | 1024.0 |
| 20260902123016 | 66 | 225 | 3.0 | 7.0 | 0.00 | 0.03 | 0.03 | 76 | 1023.9 |
| 20260902122016 | 66 | 225 | 4.0 | 7.0 | 0.00 | 0.03 | 0.03 | 78 | 1023.9 |
| 20260902121016 | 66 | 203 | 4.0 | 7.0 | 0.00 | 0.03 | 0.03 | 78 | 1023.9 |
| 20260902120016 | 65 | 203 | 3.0 | 8.0 | 0.00 | 0.03 | 0.03 | 82 | 1024.0 |
| 20260902115036 | 65 | 203 | 2.0 | 5.0 | 0.00 | 0.03 | 0.03 | 85 | 1024.0 |
| 20260902114016 | 64 | 203 | 2.0 | 4.0 | 0.00 | 0.03 | 0.03 | 86 | 1024.1 |
| 20260902113016 | 64 | 203 | 2.0 | 5.0 | 0.00 | 0.03 | 0.03 | 88 | 1024.1 |
| 20260902112036 | 64 | 203 | 1.0 | 4.0 | 0.00 | 0.03 | 0.03 | 88 | 1024.2 |
| 20260902111016 | 65 | 180 | 3.0 | 7.0 | 0.01 | 0.03 | 0.03 | 85 | 1024.3 |
| 20260902110036 | 65 | 203 | 3.0 | 5.0 | 0.02 | 0.03 | 0.03 | 86 | 1024.2 |
| 20260902105016 | 65 | 203 | 2.0 | 5.0 | 0.02 | 0.03 | 0.03 | 89 | 1024.3 |
| 20260902104017 | 65 | 225 | 1.0 | 2.0 | 0.02 | 0.03 | 0.03 | 90 | 1024.3 |
| 20260902103016 | 65 | 0.0 | 1.0 | 0.02 | 0.03 | 0.03 | 91 | 1024.3 | |
| 20260902102016 | 65 | 0.0 | 2.0 | 0.02 | 0.03 | 0.03 | 90 | 1024.4 | |
| 20260902101016 | 65 | 180 | 2.0 | 5.0 | 0.02 | 0.02 | 0.02 | 89 | 1024.5 |
| 20260902100016 | 65 | 203 | 1.0 | 3.0 | 0.01 | 0.01 | 0.01 | 89 | 1024.6 |
| 20260902095016 | 65 | 0.0 | 1.0 | 0.01 | 0.01 | 0.01 | 89 | 1024.6 | |
| 20260902094016 | 65 | 203 | 1.0 | 3.0 | 0.01 | 0.01 | 0.01 | 88 | 1024.7 |
| 20260902093017 | 65 | 0.0 | 1.0 | 0.01 | 0.01 | 0.01 | 88 | 1024.6 | |
| 20260902092056 | 65 | 203 | 1.0 | 2.0 | 0.01 | 0.01 | 0.01 | 87 | 1024.6 |
| 20260902091016 | 65 | 203 | 1.0 | 2.0 | 0.01 | 0.01 | 0.01 | 86 | 1024.6 |
| 20260902090036 | 66 | 203 | 1.0 | 3.0 | 0.00 | 0.00 | 0.00 | 86 | 1024.5 |
| 20260902085036 | 66 | 203 | 2.0 | 4.0 | 0.00 | 0.00 | 0.00 | 85 | 1024.5 |
| 20260902084016 | 65 | 203 | 2.0 | 4.0 | 0.00 | 0.00 | 0.00 | 85 | 1024.4 |
| 20260902083016 | 65 | 203 | 2.0 | 4.0 | 0.00 | 0.00 | 0.00 | 87 | 1024.3 |
| 20260902082016 | 65 | 203 | 2.0 | 5.0 | 0.00 | 0.00 | 0.00 | 89 | 1024.3 |
| 20260902081016 | 64 | 225 | 2.0 | 4.0 | 0.00 | 0.00 | 0.00 | 90 | 1024.2 |
| 20260902080016 | 63 | 203 | 1.0 | 2.0 | 0.00 | 0.00 | 0.00 | 91 | 1024.3 |
| 20260902075036 | 63 | 203 | 1.0 | 2.0 | 0.00 | 0.00 | 0.00 | 92 | 1024.1 |
| 20260902074018 | 62 | 180 | 1.0 | 2.0 | 0.00 | 0.00 | 0.00 | 93 | 1024.0 |
| 20260902073016 | 62 | 0.0 | 2.0 | 0.00 | 0.00 | 0.00 | 94 | 1024.0 | |
| 20260902072017 | 61 | 0.0 | 2.0 | 0.00 | 0.00 | 0.00 | 94 | 1024.2 | |
| 20260902071038 | 61 | 0.0 | 1.0 | 0.00 | 0.00 | 0.00 | 95 | 1024.2 | |
| 20260902070016 | 60 | 0.0 | 0.0 | 0.00 | 0.00 | 0.00 | 95 | 1024.0 | |
| 20260902065016 | 60 | 0.0 | 0.0 | 0.00 | 0.00 | 0.00 | 94 | 1024.0 | |
| 20260902064017 | 60 | 0.0 | 0.0 | 0.00 | 0.00 | 0.00 | 95 | 1023.9 | |
| 20260902063036 | 59 | 0.0 | 0.0 | 0.00 | 0.00 | 0.00 | 95 | 1023.9 | |
| 20260902062017 | 59 | 0.0 | 0.0 | 0.00 | 0.00 | 0.00 | 95 | 1023.7 | |
| 20260902061020 | 58 | 0.0 | 0.0 | 0.00 | 0.00 | 0.00 | 94 | 1023.8 | |
| 20260902060016 | 57 | 0.0 | 0.0 | 0.00 | 0.00 | 0.00 | 94 | 1023.8 | |
| 20260902055036 | 57 | 0.0 | 0.0 | 0.00 | 0.00 | 0.00 | 93 | 1023.8 | |
| 20260902054016 | 57 | 0.0 | 0.0 | 0.00 | 0.00 | 0.00 | 93 | 1023.7 | |
| 20260902053016 | 57 | 0.0 | 0.0 | 0.00 | 0.00 | 0.00 | 92 | 1023.5 | |
| 20260902052017 | 57 | 0.0 | 0.0 | 0.00 | 0.00 | 0.00 | 92 | 1023.6 | |
| 20260902051016 | 57 | 0.0 | 0.0 | 0.00 | 0.00 | 0.00 | 92 | 1023.6 | |
| 20260902050016 | 57 | 0.0 | 0.0 | 0.00 | 0.00 | 0.00 | 92 | 1023.6 | |
| 20260902045016 | 57 | 0.0 | 0.0 | 0.00 | 0.00 | 0.00 | 92 | 1023.7 | |
| 20260902044016 | 57 | 0.0 | 0.0 | 0.00 | 0.00 | 0.00 | 91 | 1023.9 | |
| 20260902043016 | 57 | 0.0 | 0.0 | 0.00 | 0.00 | 0.00 | 91 | 1023.9 | |
| 20260902042016 | 58 | 0.0 | 0.0 | 0.00 | 0.00 | 0.00 | 91 | 1024.0 | |
| 20260902041016 | 58 | 0.0 | 0.0 | 0.00 | 0.00 | 0.00 | 91 | 1024.0 | |
| 20260902040016 | 58 | 0.0 | 0.0 | 0.00 | 0.00 | 0.00 | 91 | 1023.8 | |
| 20260902035016 | 59 | 0.0 | 0.0 | 0.00 | 0.00 | 0.00 | 91 | 1023.7 | |
| 20260902034037 | 59 | 0.0 | 0.0 | 0.00 | 0.00 | 0.00 | 91 | 1023.8 | |
| 20260902033016 | 59 | 0.0 | 0.0 | 0.00 | 0.00 | 0.00 | 91 | 1023.9 | |
| 20260902032016 | 59 | 0.0 | 0.0 | 0.00 | 0.00 | 0.00 | 92 | 1024.0 | |
| 20260902031036 | 60 | 0.0 | 0.0 | 0.00 | 0.00 | 0.00 | 91 | 1024.1 | |
| 20260902030016 | 60 | 0.0 | 0.0 | 0.00 | 0.00 | 0.00 | 91 | 1024.0 | |
| 20260902025136 | 60 | 0.0 | 0.0 | 0.00 | 0.00 | 0.00 | 91 | 1024.1 | |
| 20260902024016 | 60 | 0.0 | 0.0 | 0.00 | 0.00 | 0.00 | 91 | 1023.9 | |
| 20260902023036 | 60 | 0.0 | 0.0 | 0.00 | 0.00 | 0.00 | 90 | 1024.1 | |
| 20260902022037 | 60 | 0.0 | 0.0 | 0.00 | 0.00 | 0.00 | 90 | 1024.1 | |
| 20260902021017 | 60 | 0.0 | 0.0 | 0.00 | 0.00 | 0.00 | 90 | 1024.2 | |
| 20260902020016 | 60 | 0.0 | 0.0 | 0.00 | 0.00 | 0.00 | 90 | 1024.3 | |
| 20260902015016 | 60 | 0.0 | 0.0 | 0.00 | 0.00 | 0.00 | 90 | 1024.4 | |
| 20260902014016 | 60 | 0.0 | 0.0 | 0.00 | 0.00 | 0.00 | 90 | 1024.5 | |
| 20260902013017 | 60 | 0.0 | 0.0 | 0.00 | 0.00 | 0.00 | 89 | 1024.4 | |
| 20260902012016 | 60 | 0.0 | 0.0 | 0.00 | 0.00 | 0.00 | 90 | 1024.4 | |
| 20260902011018 | 60 | 0.0 | 1.0 | 0.00 | 0.00 | 0.00 | 89 | 1024.4 | |
| 20260902010036 | 60 | 0.0 | 0.0 | 0.00 | 0.00 | 0.00 | 89 | 1024.4 | |
| 20260902005016 | 60 | 0.0 | 0.0 | 0.00 | 0.00 | 0.00 | 89 | 1024.5 | |
| 20260902004016 | 60 | 0.0 | 0.0 | 0.00 | 0.00 | 0.00 | 88 | 1024.5 | |
| 20260902003018 | 61 | 0.0 | 0.0 | 0.00 | 0.00 | 0.00 | 88 | 1024.6 | |
| 20260902002016 | 61 | 0.0 | 0.0 | 0.00 | 0.00 | 0.00 | 88 | 1024.5 | |
| 20260902001038 | 61 | 0.0 | 0.0 | 0.00 | 0.00 | 0.00 | 88 | 1024.6 | |
| 20260902000017 | 61 | 0.0 | 0.0 | 0.00 | 0.00 | 0.00 | 87 | 1024.5 | |
| 20260901235016 | 61 | 0.0 | 0.0 | 0.00 | 0.00 | 0.00 | 87 | 1024.6 | |
| 20260901234018 | 61 | 0.0 | 0.0 | 0.00 | 0.00 | 0.00 | 87 | 1024.6 | |
| 20260901233016 | 61 | 0.0 | 0.0 | 0.00 | 0.00 | 0.00 | 86 | 1024.6 | |
| 20260901232016 | 61 | 0.0 | 0.0 | 0.00 | 0.00 | 0.00 | 86 | 1024.5 | |
| 20260901231016 | 61 | 0.0 | 1.0 | 0.00 | 0.00 | 0.00 | 86 | 1024.5 | |
| 20260901230016 | 61 | 0.0 | 0.0 | 0.00 | 0.00 | 0.00 | 86 | 1024.6 | |
| 20260901225016 | 61 | 0.0 | 0.0 | 0.00 | 0.00 | 0.00 | 86 | 1024.7 | |
| 20260901224016 | 61 | 0.0 | 0.0 | 0.00 | 0.00 | 0.00 | 85 | 1024.7 | |
| 20260901223037 | 61 | 0.0 | 0.0 | 0.00 | 0.00 | 0.00 | 85 | 1024.7 | |
| 20260901222016 | 61 | 0.0 | 0.0 | 0.00 | 0.00 | 0.00 | 85 | 1024.7 | |
| 20260901221016 | 61 | 0.0 | 1.0 | 0.00 | 0.00 | 0.00 | 85 | 1024.7 | |
| 20260901220016 | 61 | 0.0 | 0.0 | 0.00 | 0.00 | 0.00 | 85 | 1024.7 | |
| 20260901215016 | 61 | 0.0 | 1.0 | 0.00 | 0.00 | 0.00 | 84 | 1024.7 | |
| 20260901214036 | 61 | 0.0 | 0.0 | 0.00 | 0.00 | 0.00 | 84 | 1024.7 | |
| 20260901213016 | 61 | 0.0 | 0.0 | 0.00 | 0.00 | 0.00 | 84 | 1024.8 | |
| 20260901212016 | 61 | 0.0 | 1.0 | 0.00 | 0.00 | 0.00 | 83 | 1024.7 | |
| 20260901211056 | 61 | 0.0 | 0.0 | 0.00 | 0.00 | 0.00 | 83 | 1024.8 | |
| 20260901210016 | 61 | 0.0 | 1.0 | 0.00 | 0.00 | 0.00 | 83 | 1024.7 | |
| 20260901205016 | 61 | 0.0 | 1.0 | 0.00 | 0.00 | 0.00 | 82 | 1024.7 | |
| 20260901204017 | 61 | 0.0 | 1.0 | 0.00 | 0.00 | 0.00 | 82 | 1024.8 | |
| 20260901203016 | 61 | 0.0 | 2.0 | 0.00 | 0.00 | 0.00 | 81 | 1024.6 | |
| 20260901202016 | 61 | 203 | 1.0 | 2.0 | 0.00 | 0.00 | 0.00 | 81 | 1024.7 |
| 20260901201016 | 61 | 0.0 | 2.0 | 0.00 | 0.00 | 0.00 | 80 | 1024.7 |